Location: Amsterdam
(30.7274°N, 84.4357°W)
Time: 04:54:38
(UTC+00:00)

MOZHAYETS 4 - Pass Details

Date: 14 March 2026
Orbit: 642 x 659 km, 98.3° (Epoch: 15 April)

Event Time Altitude Azimuth Distance (km) Brightness Sun altitude
Rises 09:34:22 0° 123° (ESE) 2,977 11.6 -29.4°
Reaches altitude 10° 09:37:36 10° 97° (E) 2,071 11.0 -28.8°
Maximum altitude 09:39:51 14° 67° (ENE) 1,834 10.8 -28.3°
Drops below altitude 10° 09:42:05 10° 38° (NE) 2,075 10.9 -27.8°
Sets 09:45:20 0° 12° (NNE) 2,990 11.4 -27.2°
